CW5346 Weather Reports


time (UTC)temp
C
wind
direction
speed
KPH
gust
KPH
rain 1hr
cm
rain 24hr
cm
rain mn
cm
humidity
%
barometer
mb
20260506002604 25 218 6.4 19.3 0.00 0.00 0.00 41 1008.2
20260506001604 25 216 3.2 14.5 0.00 0.00 0.00 40 1008.0
20260506000625 25 240 1.6 24.1 0.00 0.00 0.00 40 1008.0
20260505235626 25 220 11.3 22.5 0.00 0.00 0.00 39 1007.8
20260505233604 25 199 1.6 12.9 0.00 0.00 0.00 38 1007.8
20260505232604 25 225 1.6 24.1 0.00 0.00 0.00 38 1007.8
20260505231604 26 206 1.6 22.5 0.00 0.00 0.00 37 1007.6
20260505230604 26 230 6.4 24.1 0.00 0.00 0.00 36 1007.3
20260505225604 26 217 8.0 22.5 0.00 0.00 0.00 36 1007.2
20260505224604 26 216 8.0 27.4 0.00 0.00 0.00 35 1007.3
20260505223626 26 219 11.3 27.4 0.00 0.00 0.00 34 1007.1
20260505222603 27 238 6.4 32.2 0.00 0.00 0.00 34 1007.1
20260505221604 27 256 9.7 29.0 0.00 0.00 0.00 33 1007.0
20260505220604 27 216 6.4 35.4 0.00 0.00 0.00 33 1007.0
20260505215604 27 228 12.9 32.2 0.00 0.00 0.00 34 1006.9
20260505214604 27 255 4.8 37.0 0.00 0.00 0.00 34 1006.9
20260505213604 27 202 12.9 46.7 0.00 0.00 0.00 34 1006.8
20260505212605 27 222 17.7 51.5 0.00 0.00 0.00 34 1006.5
20260505211603 27 216 20.9 37.0 0.00 0.00 0.00 35 1006.4
20260505210625 27 195 14.5 37.0 0.00 0.00 0.00 36 1006.5
20260505205604 27 240 6.4 25.7 0.00 0.00 0.00 35 1006.4
20260505204604 27 204 11.3 41.8 0.00 0.00 0.00 36 1006.5
20260505203604 27 222 11.3 35.4 0.00 0.00 0.00 35 1006.8
20260505202604 28 186 9.7 33.8 0.00 0.00 0.00 34 1006.8
20260505200604 28 207 8.0 41.8 0.00 0.00 0.00 35 1006.8
20260505195603 28 220 12.9 33.8 0.00 0.00 0.00 35 1006.7
20260505194604 27 205 14.5 38.6 0.00 0.00 0.00 35 1006.8
20260505193603 27 213 11.3 43.5 0.00 0.00 0.00 37 1006.8
20260505192604 28 221 16.1 40.2 0.00 0.00 0.00 36 1007.0
20260505191604 28 202 11.3 33.8 0.00 0.00 0.00 36 1007.0
20260505190604 28 206 12.9 29.0 0.00 0.00 0.00 36 1007.2
20260505185625 28 203 9.7 32.2 0.00 0.00 0.00 38 1007.4
20260505184603 28 262 8.0 32.2 0.00 0.00 0.00 38 1007.5
20260505183625 28 249 16.1 33.8 0.00 0.00 0.00 37 1008.0
20260505182604 28 228 12.9 25.7 0.00 0.00 0.00 40 1008.0
20260505181603 28 182 12.9 30.6 0.00 0.00 0.00 42 1007.9
20260505180604 27 242 17.7 33.8 0.00 0.00 0.00 41 1008.0
20260505175604 27 203 19.3 35.4 0.00 0.00 0.00 42 1008.1
20260505174604 27 213 8.0 32.2 0.00 0.00 0.00 44 1008.1
20260505173603 27 212 4.8 20.9 0.00 0.00 0.00 45 1008.1
20260505172604 27 212 12.9 25.7 0.00 0.00 0.00 44 1008.2
20260505171646 27 254 9.7 22.5 0.00 0.00 0.00 44 1008.4
20260505170625 26 212 11.3 29.0 0.00 0.00 0.00 47 1008.4
20260505165604 26 210 8.0 24.1 0.00 0.00 0.00 46 1008.6
20260505163604 26 179 4.8 27.4 0.00 0.00 0.00 49 1008.9
20260505162604 26 209 16.1 25.7 0.00 0.00 0.00 48 1009.0
20260505161605 25 255 9.7 24.1 0.00 0.00 0.00 52 1009.2
20260505160603 25 176 3.2 22.5 0.00 0.00 0.00 51 1009.3
20260505152604 24 168 9.7 19.3 0.00 0.00 0.00 54 1009.8
20260505151603 24 178 8.0 19.3 0.00 0.00 0.00 54 1009.9
20260505150604 24 191 1.6 16.1 0.00 0.00 0.00 54 1009.9
20260505140604 21 242 6.4 16.1 0.00 0.00 0.00 61 1010.3
20260505124603 16 225 3.2 11.3 0.00 0.00 0.00 80 1010.1
20260505123604 15 236 0.0 0.0 0.00 0.00 0.00 87 1010.2
20260505122604 13 232 0.0 0.0 0.00 0.00 0.00 93 1010.2
20260505121604 12 232 0.0 0.0 0.00 0.00 0.00 95 1010.4
20260505120604 11 232 0.0 0.0 0.00 0.00 0.00 96 1010.7
20260505115604 10 232 0.0 0.0 0.00 0.00 0.00 95 1010.7
20260505114625 10 232 0.0 0.0 0.00 0.00 0.00 95 1010.7
20260505113604 10 232 0.0 0.0 0.00 0.00 0.00 95 1010.5
20260505112645 9 232 0.0 0.0 0.00 0.00 0.00 95 1010.2
20260505111604 9 232 0.0 0.0 0.00 0.00 0.00 95 1010.2
20260505110603 8 231 0.0 0.0 0.00 0.00 0.00 95 1010.4
20260505101603 7 231 0.0 0.0 0.00 0.00 0.00 94 1010.5
20260505100604 7 231 0.0 0.0 0.00 0.00 0.00 94 1010.3
20260505095603 7 231 0.0 0.0 0.00 0.00 0.00 94 1010.2
20260505094604 7 231 0.0 0.0 0.00 0.00 0.00 93 1010.1
20260505093604 7 191 0.0 0.0 0.00 0.00 0.00 93 1010.2
20260505092604 7 204 0.0 0.0 0.00 0.00 0.00 93 1010.0
20260505091603 7 204 0.0 0.0 0.00 0.00 0.00 93 1009.9
20260505090604 7 204 0.0 0.0 0.00 0.00 0.00 93 1009.7
20260505085625 7 204 0.0 0.0 0.00 0.00 0.00 93 1009.6
20260505084603 7 204 0.0 0.0 0.00 0.00 0.00 92 1009.7
20260505083604 7 204 0.0 0.0 0.00 0.00 0.00 92 1009.7
20260505082603 7 204 0.0 0.0 0.00 0.00 0.00 92 1009.6
20260505081604 7 204 0.0 0.0 0.00 0.00 0.00 92 1009.8
20260505080604 7 203 0.0 0.0 0.00 0.00 0.00 92 1009.7
20260505075603 7 203 0.0 0.0 0.00 0.00 0.00 92 1009.8
20260505074604 7 204 0.0 0.0 0.00 0.00 0.00 91 1009.7
20260505073604 7 204 0.0 0.0 0.00 0.00 0.00 91 1009.7
20260505072603 7 204 0.0 0.0 0.00 0.00 0.00 91 1009.7
20260505071603 8 204 0.0 0.0 0.00 0.00 0.00 91 1009.5
20260505070604 8 204 0.0 0.0 0.00 0.00 0.00 90 1009.6
20260505065625 8 204 0.0 0.0 0.00 0.00 0.00 90 1009.8
20260505064604 8 204 0.0 0.0 0.00 0.00 0.00 90 1009.7
20260505063603 8 204 0.0 0.0 0.00 0.00 0.00 89 1009.8
20260505062604 8 203 0.0 0.0 0.00 0.00 0.00 89 1009.8
20260505061604 8 204 0.0 0.0 0.00 0.00 0.00 88 1009.9
20260505060624 8 204 0.0 0.0 0.00 0.00 0.00 88 1009.8
20260505055625 8 204 0.0 0.0 0.00 0.00 0.00 88 1010.0
20260505054604 8 204 0.0 0.0 0.00 0.00 0.00 88 1010.0
20260505053604 8 204 0.0 0.0 0.00 0.00 0.00 87 1010.1
20260505052603 8 204 0.0 0.0 0.00 0.00 0.00 87 1010.1
20260505051604 9 204 0.0 0.0 0.00 0.00 0.00 86 1010.1
20260505050604 9 204 0.0 0.0 0.00 0.00 0.00 85 1010.2
20260505041603 10 204 0.0 0.0 0.00 0.00 0.00 83 1010.4
20260505040603 10 204 0.0 0.0 0.00 0.00 0.00 82 1010.3
20260505035604 10 204 0.0 0.0 0.00 0.00 0.00 82 1010.3
20260505034604 10 203 0.0 0.0 0.00 0.00 0.00 81 1010.4
20260505033603 10 204 0.0 0.0 0.00 0.00 0.00 80 1010.4
20260505032604 11 204 0.0 0.0 0.00 0.00 0.00 79 1010.5
20260505031603 11 204 0.0 0.0 0.00 0.00 0.00 79 1010.6
20260505030604 11 204 0.0 0.0 0.00 0.00 0.00 78 1010.6
20260505025624 11 204 0.0 0.0 0.00 0.00 0.00 77 1010.6
20260505024603 11 204 0.0 0.0 0.00 0.00 0.00 75 1010.6
20260505023625 12 204 0.0 0.0 0.00 0.00 0.00 76 1010.5
20260505022603 12 204 0.0 0.0 0.00 0.00 0.00 74 1010.6
20260505021604 12 204 0.0 0.0 0.00 0.00 0.00 72 1010.5
20260505020603 12 204 0.0 0.0 0.00 0.00 0.00 71 1010.6
20260505015604 13 204 0.0 0.0 0.00 0.00 0.00 70 1010.5
20260505014624 13 204 0.0 0.0 0.00 0.00 0.00 68 1010.4
20260505013603 14 204 0.0 0.0 0.00 0.00 0.00 67 1010.4
20260505011603 15 204 0.0 0.0 0.00 0.00 0.00 63 1010.2
20260505005604 16 204 0.0 0.0 0.00 0.00 0.00 58 1009.9
20260505004604 17 204 0.0 0.0 0.00 0.00 0.00 57 1009.6
20260505003625 17 204 0.0 0.0 0.00 0.00 0.00 53 1009.6